Torna al catalogo

BREEZE-M R/B

AttivoMEO
NORAD 40259·ROCKET BODY·🇷🇺 Russia

Lanciato Sep 27, 2014 da Baikonur Cosmodrome

Loading…

Prossimi Passaggi (prossime 24 ore)

TLE

AggiornatoSource: Space-Track

Epoca: Sep 14, 2026, 02:32 UTC

1 40259U 14058B   26257.10555728 -.00000191  00000-0  00000-0 0  9995
2 40259  10.7315  58.9057 0636256 200.6244 156.8180  0.91687269 40044

Traccia BREEZE-M R/B in tempo reale con AllMySat

Download on the App Store